Coleman, TX

4:52 AM CST on February 22, 2017 (GMT -0600)
Coleman Municipal

Weather History for KCOM - April, 2013

Change the Weather History Date:

Friday, April 26, 2013

  Actual Average (KABI) Record (KABI)
Temperature  
Mean Temperature 72 °F -  
Max Temperature 86 °F 77 °F 96 °F (1984)
Min Temperature 60 °F 52 °F 37 °F (1907)
Cooling Degree Days 8    
Growing Degree Days 22 (Base 50)    
Moisture  
Dew Point 53 °F    
Average Humidity 56    
Maximum Humidity 78    
Minimum Humidity 31    
Precipitation  
Precipitation 0.01 in - - ()
Sea Level Pressure  
Sea Level Pressure 30.05 in    
Wind  
Wind Speed 13 mph (South)    
Max Wind Speed 21 mph    
Max Gust Speed 29 mph    
Visibility 10 miles    
Events      
Averages and records for this station are not official NWS values.
T = Trace of Precipitation, MM = Missing Value Source: NWS Daily Summary

Daily Weather History Graph

Daily Weather History Graph

Search for Another Location

Airport or City:

Trip Planner

Search our weather history database for the weather conditions in past years. The results will help you decide how hot, cold, wet, or windy it might be!

Date:

Astronomy

Apr. 26, 2013 Rise Set
Actual Time 6:56 AM CDT 8:14 PM CDT
Civil Twilight 6:30 AM CDT 8:40 PM CDT
Nautical Twilight 6:00 AM CDT 9:10 PM CDT
Astronomical Twilight 5:28 AM CDT 9:42 PM CDT
Moon 9:34 PM CDT (4/26) 7:28 AM CDT (4/26)
Length of Visible Light 14h 09m
Length of Day
13h 18m
Full, 99% of the Moon is Illuminated
Apr 26
Full
May 2
Last Quarter
May 9
New
May 17
First Quarter
May 24
Full

Hourly Weather History & Observations

Time (CDT) Temp. Heat Index Dew Point Humidity Pressure Visibility Wind Dir Wind Speed Gust Speed Precip Events Conditions
12:35 AM 61.9 °F - 40.1 °F 45% 30.11 in 10.0 mi South 15.0 mph 21.9 mph N/A   Overcast
12:55 AM 61.7 °F - 41.0 °F 47% 30.12 in 10.0 mi South 16.1 mph 21.9 mph N/A   Overcast
1:15 AM 61.5 °F - 41.7 °F 48% 30.12 in 10.0 mi South 13.8 mph 21.9 mph N/A   Overcast
1:35 AM 61.7 °F - 42.1 °F 49% 30.13 in 10.0 mi South 12.7 mph 19.6 mph N/A   Overcast
1:55 AM 61.3 °F - 42.4 °F 50% 30.11 in 10.0 mi South 11.5 mph - N/A   Overcast
2:15 AM 61.7 °F - 43.0 °F 50% 30.09 in 10.0 mi SSE 13.8 mph 19.6 mph N/A   Overcast
2:35 AM 61.3 °F - 43.3 °F 52% 30.06 in 10.0 mi SSE 15.0 mph 23.0 mph N/A   Overcast
2:55 AM 61.3 °F - 43.9 °F 53% 30.08 in 10.0 mi South 9.2 mph - N/A   Overcast
3:15 AM 61.3 °F - 44.4 °F 54% 30.07 in 10.0 mi South 10.4 mph - N/A   Overcast
3:35 AM 61.3 °F - 45.5 °F 56% 30.07 in 10.0 mi South 10.4 mph - N/A   Overcast
3:55 AM 61.3 °F - 46.8 °F 59% 30.06 in 10.0 mi SSE 13.8 mph - N/A   Overcast
4:15 AM 61.3 °F - 47.5 °F 60% 30.06 in 10.0 mi South 13.8 mph 20.7 mph N/A   Overcast
4:35 AM 61.3 °F - 48.6 °F 63% 30.06 in 10.0 mi South 9.2 mph - N/A   Overcast
4:55 AM 61.3 °F - 49.8 °F 66% 30.06 in 10.0 mi South 10.4 mph 16.1 mph N/A   Overcast
5:15 AM 61.2 °F - 50.4 °F 68% 30.06 in 10.0 mi South 10.4 mph 17.3 mph N/A   Overcast
5:35 AM 61.3 °F - 50.9 °F 69% 30.08 in 10.0 mi South 8.1 mph - N/A   Overcast
5:55 AM 61.2 °F - 50.9 °F 69% 30.08 in 10.0 mi South 9.2 mph - N/A   Overcast
6:15 AM 61.2 °F - 50.9 °F 69% 30.06 in 10.0 mi South 10.4 mph 16.1 mph N/A   Overcast
6:35 AM 60.8 °F - 50.4 °F 68% 30.06 in 10.0 mi South 11.5 mph - N/A   Overcast
6:55 AM 60.8 °F - 50.7 °F 69% 30.07 in 10.0 mi South 10.4 mph - N/A   Overcast
7:15 AM 60.8 °F - 50.7 °F 69% 30.09 in 10.0 mi South 10.4 mph - N/A   Overcast
7:35 AM 60.8 °F - 51.1 °F 70% 30.09 in 10.0 mi South 9.2 mph - N/A   Overcast
7:55 AM 61.2 °F - 51.8 °F 71% 30.10 in 10.0 mi South 9.2 mph - N/A   Overcast
8:15 AM 61.3 °F - 52.2 °F 72% 30.11 in 10.0 mi South 6.9 mph - N/A   Overcast
8:35 AM 61.7 °F - 52.3 °F 71% 30.11 in 10.0 mi South 10.4 mph - N/A   Overcast
8:55 AM 61.9 °F - 52.9 °F 72% 30.10 in 10.0 mi South 11.5 mph - N/A   Overcast
9:15 AM 62.6 °F - 54.3 °F 74% 30.10 in 10.0 mi South 13.8 mph 19.6 mph N/A   Overcast
9:35 AM 62.6 °F - 55.2 °F 77% 30.11 in 10.0 mi South 10.4 mph 17.3 mph N/A   Overcast
9:55 AM 62.6 °F - 55.6 °F 78% 30.11 in 10.0 mi South 8.1 mph - N/A   Overcast
10:15 AM 63.9 °F - 55.9 °F 75% 30.10 in 10.0 mi South 10.4 mph - N/A   Overcast
10:35 AM 65.1 °F - 56.5 °F 74% 30.11 in 10.0 mi South 9.2 mph - N/A   Overcast
10:55 AM 66.4 °F - 56.8 °F 71% 30.10 in 10.0 mi South 12.7 mph 16.1 mph N/A   Overcast
11:15 AM 68.5 °F - 57.0 °F 67% 30.10 in 10.0 mi South 16.1 mph 23.0 mph N/A   Overcast
11:35 AM 70.0 °F - 57.2 °F 64% 30.10 in 10.0 mi South 12.7 mph 20.7 mph N/A   Overcast
11:55 AM 69.6 °F - 57.2 °F 65% 30.11 in 10.0 mi South 13.8 mph 19.6 mph N/A   Overcast
12:15 PM 71.8 °F - 57.0 °F 60% 30.10 in 10.0 mi South 15.0 mph 21.9 mph N/A   Overcast
12:35 PM 74.3 °F - 56.3 °F 53% 30.09 in 10.0 mi SSW 17.3 mph 21.9 mph N/A   Overcast
12:55 PM 75.0 °F - 57.2 °F 54% 30.08 in 10.0 mi South 13.8 mph 21.9 mph N/A   Mostly Cloudy
1:15 PM 77.0 °F - 56.1 °F 48% 30.07 in 10.0 mi South 17.3 mph 21.9 mph N/A   Mostly Cloudy
1:35 PM 78.4 °F - 55.4 °F 45% 30.06 in 10.0 mi SSW 17.3 mph 25.3 mph N/A   Scattered Clouds
1:55 PM 78.3 °F - 55.2 °F 45% 30.06 in 10.0 mi SSW 17.3 mph 24.2 mph 0.01 in   Scattered Clouds
2:15 PM 79.9 °F - 55.8 °F 43% 30.05 in 10.0 mi South 20.7 mph 25.3 mph N/A   Scattered Clouds
2:35 PM 81.9 °F 81.2 °F 54.9 °F 39% 30.04 in 10.0 mi SSW 18.4 mph 26.5 mph N/A   Scattered Clouds
2:55 PM 82.2 °F 81.4 °F 54.1 °F 38% 30.03 in 10.0 mi South 20.7 mph 28.8 mph N/A   Clear
3:15 PM 82.6 °F 81.6 °F 53.6 °F 37% 30.03 in 10.0 mi SSW 15.0 mph 27.6 mph N/A   Clear
3:35 PM 82.9 °F 81.9 °F 54.5 °F 37% 30.02 in 10.0 mi South 13.8 mph 24.2 mph N/A   Clear
3:55 PM 83.5 °F 82.2 °F 53.8 °F 36% 30.01 in 10.0 mi South 18.4 mph 25.3 mph N/A   Clear
4:15 PM 84.2 °F - 52.3 °F 33% 30.00 in 10.0 mi South 13.8 mph - N/A   Clear
4:35 PM 85.5 °F - 52.0 °F 31% 29.99 in 10.0 mi South 15.0 mph 20.7 mph N/A   Clear
4:55 PM 84.9 °F 83.3 °F 53.4 °F 34% 29.99 in 10.0 mi South 18.4 mph 24.2 mph N/A   Clear
5:15 PM 84.2 °F 82.8 °F 53.8 °F 35% 29.98 in 10.0 mi South 19.6 mph 26.5 mph N/A   Clear
5:35 PM 84.6 °F 83.0 °F 53.2 °F 34% 29.98 in 10.0 mi South 16.1 mph 24.2 mph N/A   Clear
5:55 PM 84.4 °F 82.8 °F 53.2 °F 34% 29.98 in 10.0 mi South 15.0 mph 23.0 mph N/A   Clear
6:15 PM 83.3 °F 82.1 °F 54.0 °F 36% 29.97 in 10.0 mi South 17.3 mph 24.2 mph N/A   Clear
6:35 PM 82.4 °F 81.6 °F 54.3 °F 38% 29.97 in 10.0 mi South 17.3 mph 25.3 mph N/A   Clear
6:55 PM 81.7 °F 81.1 °F 54.5 °F 39% 29.97 in 10.0 mi South 19.6 mph 24.2 mph N/A   Clear
7:15 PM 80.6 °F 80.4 °F 55.0 °F 41% 29.97 in 10.0 mi South 17.3 mph 23.0 mph N/A   Clear
7:35 PM 79.0 °F - 56.3 °F 46% 29.97 in 10.0 mi South 13.8 mph 20.7 mph N/A   Clear
7:55 PM 77.4 °F - 55.8 °F 47% 29.98 in 10.0 mi South 11.5 mph 21.9 mph N/A   Clear
8:15 PM 76.3 °F - 56.3 °F 50% 29.98 in 10.0 mi South 13.8 mph 23.0 mph N/A   Clear
8:35 PM 75.4 °F - 57.2 °F 53% 29.98 in 10.0 mi South 13.8 mph 21.9 mph N/A   Clear
8:55 PM 74.3 °F - 57.2 °F 55% 29.99 in 10.0 mi South 11.5 mph 16.1 mph N/A   Clear
9:15 PM 73.6 °F - 58.1 °F 58% 30.00 in 10.0 mi South 12.7 mph 18.4 mph N/A   Clear
9:35 PM 73.4 °F - 58.3 °F 59% 30.01 in 10.0 mi South 18.4 mph 27.6 mph N/A   Clear
9:55 PM 72.5 °F - 58.8 °F 62% 30.02 in 10.0 mi South 12.7 mph 18.4 mph N/A   Clear
10:15 PM 71.1 °F - 59.0 °F 66% 30.03 in 10.0 mi South 8.1 mph - N/A   Clear
10:35 PM 70.7 °F - 59.0 °F 66% 30.03 in 10.0 mi South 13.8 mph 17.3 mph N/A   Clear
10:55 PM 70.2 °F - 59.2 °F 68% 30.04 in 10.0 mi South 12.7 mph - N/A   Clear
11:15 PM 69.1 °F - 59.2 °F 71% 30.05 in 10.0 mi SSW 6.9 mph - N/A   Clear
11:35 PM 69.1 °F - 59.5 °F 72% 30.05 in 10.0 mi South 12.7 mph - N/A   Clear
11:55 PM 68.4 °F - 59.7 °F 74% 30.05 in 10.0 mi SSW 8.1 mph - N/A   Clear